Location: Chaumeil
(45.5767°N, 2.0005°E)
Time: 13:06:02
(UTC+00:00)

Daily predictions for brighter satellites

Satellite Brightness Start Highest point End
(mag) Time Altitude Azimuth Time Altitude Azimuth Time Altitude Azimuth
COSMOS 2406 3.5 19:47:27 10° SSW 19:53:07 76° WNW 19:58:51 10° NNE
BREEZE-M DEB (TANK) 3.4 19:50:25 10° SSW 19:53:25 39° SE 20:01:36 10° ENE
Cosmos 2322 Rocket 3.9 19:50:19 10° N 19:54:20 19° NE 19:58:20 10° E
Meteor 2-13 Rocket 4.5 19:48:31 10° S 19:54:37 81° E 20:00:43 10° N
IRS-1A Rocket 4.3 19:50:21 10° SSE 19:55:51 75° ENE 20:01:21 10° NNW
Cosmos 1689 Rocket 3.2 19:54:10 10° N 19:56:50 45° WNW 19:59:28 10° SSW
BREEZE-M DEB (TANK) 3.3 19:56:32 10° WNW 19:59:22 71° NNE 20:07:02 10° ESE
MOS 1 4.3 19:54:29 10° SSE 20:00:08 83° ENE 20:05:49 10° NNW
Cosmos 1538 Rocket 4.4 19:55:56 10° S 20:00:47 40° ESE 20:05:36 10° NE
Resurs 01 Rocket 1.9 19:59:32 10° SSE 20:03:50 51° ENE 20:08:09 10° N
Cosmos 2151 4.0 20:01:54 10° SSE 20:05:31 28° E 20:09:11 10° NNE
ERS-2 2.2 20:02:38 10° NNE 20:06:14 54° ESE 20:09:48 10° S
Cosmos 44 Rocket 4.0 20:01:18 10° SW 20:06:28 67° NW 20:11:42 10° NNE
Cosmos 2098 Rocket 2.8 20:03:54 10° SSE 20:06:47 40° E 20:10:10 10° NNE
Gbstr 26 Del rocket 3.6 20:04:46 10° WNW 20:08:20 42° NNE 20:12:06 10° E
USA 186 4.3 20:10:30 10° SW 20:12:46 19° W 20:14:56 10° NW
Ariane Rocket 3.2 20:13:08 10° S 20:18:13 77° WSW 20:23:18 10° NNW
SL-16 R/B 3.1 20:18:08 10° NNW 20:23:22 36° NE 20:28:03 12° ESE
Cosmos 1782 4.2 20:24:17 10° NNE 20:27:36 24° ENE 20:30:03 14° ESE
Cosmos 371 Rocket 3.3 20:23:27 10° NNW 20:28:17 84° ENE 20:32:51 11° SSE
ARIANE 5 R/B 3.8 20:26:51 13° ESE 20:30:06 29° ENE 20:33:56 10° N
Cosmos 1271 Rocket 3.5 20:30:30 10° N 20:34:15 37° ENE 20:36:55 17° SE
USA 276 2.6 20:32:54 10° WNW 20:36:00 54° NNE 20:38:32 14° E
SPOT 1/Viking Rocket 3.6 20:31:18 12° SSE 20:36:09 66° ENE 20:41:20 10° N
BREEZE-M DEB (TANK) 2.4 20:34:18 10° WNW 20:37:10 88° SSW 20:43:14 13° ESE
Cosmos 1076 Rocket 3.7 20:33:33 10° SSW 20:37:52 76° W 20:42:16 10° N
Cosmos 1697 Rocket 4.4 20:34:39 10° NW 20:39:31 30° WSW 20:44:21 10° SSW
OBJECT-B 3.9 20:39:34 10° WSW 20:40:49 12° W 20:42:03 10° WNW
Cosmos 1151 Rocket 4.2 20:37:27 10° NNE 20:41:15 28° ENE 20:43:40 17° ESE
ATLAS 2AS CENTAUR R/B 3.9 20:36:23 10° WSW 20:44:07 55° NW 20:51:40 10° NNE
Cosmos 923 Rocket 4.3 20:42:04 10° S 20:47:08 46° ESE 20:52:14 10° NNE
ATLAS 3B R/B 3.0 20:43:28 10° NW 20:50:33 69° WSW 20:56:42 15° SSE
Terra 3.0 20:47:56 17° ESE 20:50:42 29° ENE 20:54:46 10° N
SPOT 5 3.3 20:50:48 20° SE 20:53:17 38° ENE 20:57:21 10° N
USA 267 4.2 20:50:28 10° ENE 20:55:26 23° SE 20:59:02 15° SSE
Cosmos 2082 Rocket 3.3 20:50:07 10° SW 20:55:31 47° WNW 21:01:00 10° NNE
Cosmos 1092 Rocket 4.0 20:49:33 10° S 20:55:46 75° E 21:02:06 10° NNE
Meteor 2-19 Rocket 4.4 20:49:51 10° S 20:55:54 86° E 21:02:00 10° N
Cosmos 1633 4.2 20:53:59 10° SW 20:57:18 35° WNW 21:00:40 10° N
Cosmos 2278 4.4 20:54:10 10° NW 20:59:36 48° WSW 21:04:37 12° S
BREEZE-M DEB (TANK) 2.9 20:59:13 10° W 21:01:45 41° NNW 21:03:12 14° ENE
ERS-1 Rocket 3.3 21:00:35 22° SE 21:03:40 53° ENE 21:08:33 10° N
Cosmos 332 Rocket 3.9 21:00:43 10° NNW 21:05:37 75° WSW 21:08:59 20° S
SL-27 R/B 4.3 21:06:23 17° E 21:06:23 17° E 21:08:20 10° NE
Cosmos 2360 Rocket 3.1 21:01:34 10° NNW 21:06:44 36° NE 21:10:08 19° ESE
Cosmos 158 Rocket 4.2 21:01:53 10° SSW 21:07:01 75° WNW 21:12:20 10° NNE
NOSS 2-1 (D) 4.5 21:08:18 19° E 21:08:18 19° E 21:09:48 10° ENE
Cosmos 2026 Rocket 4.0 21:02:25 10° S 21:08:45 76° E 21:15:02 10° NNE
GP-B 3.0 21:08:52 10° N 21:13:20 83° E 21:16:14 21° S
ISS -3.1 21:11:52 10° WNW 21:15:05 42° SW 21:15:56 34° S
Cosmos 2333 Rocket 3.8 21:12:32 10° N 21:17:04 24° NE 21:20:38 14° E
Spot 2 Rocket 3.5 21:14:48 21° S 21:18:14 82° WSW 21:23:24 10° NNW
Meteor 1-26 Rocket 4.4 21:13:46 10° NNW 21:19:45 78° W 21:23:54 20° S
Cosmos 1371 Rocket 4.4 21:15:25 10° NNW 21:20:42 54° ENE 21:23:22 28° SE
Cosmos 2112 Rocket 4.1 21:17:49 18° S 21:21:43 59° ESE 21:26:55 10° NNE
Cosmos 1812 3.1 21:18:16 10° N 21:22:00 46° ENE 21:23:04 36° ESE
Cosmos 1680 Rocket 3.4 21:17:27 13° S 21:22:12 70° ESE 21:27:27 10° NNE
Cosmos 220 Rocket 4.2 21:19:51 10° NNW 21:24:09 59° ENE 21:25:50 34° SE
CZ-2C R/B 4.3 21:20:45 10° N 21:25:12 57° WNW 21:29:33 10° SSW
Okean 3 Rocket 3.5 21:24:58 27° S 21:27:20 73° E 21:31:51 10° NNE
Cosmos 1980 Rocket 4.0 21:23:22 10° NW 21:27:44 24° WSW 21:32:06 10° SSW
USA 245 4.5 21:25:06 17° S 21:28:55 49° W 21:33:06 10° NNW
USA 234 4.4 21:24:20 10° E 21:30:20 40° NNE 21:36:20 10° NW
Cosmos 2322 Rocket 2.1 21:33:29 10° NNW 21:39:09 85° WSW 21:41:46 33° SSE
Resurs 01 Rocket 4.1 21:37:41 10° SW 21:40:37 17° W 21:43:34 10° NW
Cosmos 1408 Rocket 3.7 21:40:12 42° SE 21:41:13 53° E 21:45:27 10° NNE
Meteor 2-14 Rocket 4.4 21:43:59 25° S 21:47:49 83° E 21:54:00 10° N
Cosmos 2084 3.2 21:48:52 28° SSW 21:50:55 80° SE 21:55:05 10° NE
Cosmos 1553 Rocket 3.9 21:46:22 10° N 21:52:28 82° W 21:55:35 31° S
CZ-4B DEB 4.1 21:53:29 81° NE 21:53:29 81° NE 21:56:34 10° N
Gbstr 26 Del rocket 3.0 21:51:28 10° WNW 21:55:10 50° SW 21:55:26 49° SSW
Cosmos 2266 Rocket 4.1 21:53:29 35° SSE 21:55:48 55° E 22:01:51 10° NNE
Cosmos 1862 3.2 21:57:03 50° SSW 21:58:01 83° W 22:02:01 10° N
Cosmos 2219 Rocket 3.1 21:55:29 10° NNW 22:00:41 38° NE 22:02:58 27° E
Cosmos 1624 Rocket 4.0 21:56:00 10° NNW 22:01:14 79° WSW 22:02:57 43° S
NOSS 2-1 (E) 2.9 22:05:22 73° NNE 22:05:22 73° NNE 22:08:30 10° NE
Cosmos 2228 Rocket 3.8 22:01:29 10° N 22:05:37 37° ENE 22:06:05 36° E
Cosmos 1515 Rocket 3.5 22:01:22 10° N 22:05:50 89° W 22:06:43 57° S
ARIANE 5 R/B 4.1 22:04:24 21° SW 22:06:28 31° W 22:10:27 10° NNW
H-2A R/B 3.3 22:02:20 10° NNE 22:06:34 80° ESE 22:07:15 61° S
SL-16 R/B 3.1 22:02:14 10° NW 22:07:30 40° WSW 22:09:55 27° SSW
NOSS 3-1 (C) 4.2 22:02:21 10° NW 22:09:45 68° NE 22:14:30 29° ESE
COSMOS 2455 3.2 22:09:10 41° SE 22:10:03 43° ESE 22:15:43 10° NE
Cosmos 2333 4.4 22:04:50 10° NNW 22:10:24 61° ENE 22:12:13 41° ESE
Cosmos 2237 4.4 22:06:10 10° NNW 22:11:50 63° WSW 22:13:45 40° S
USA 276 4.1 22:09:14 10° W 22:10:46 22° W 22:10:46 22° W
Cosmos 1420 Rocket 3.9 22:06:53 10° NNW 22:12:15 87° ENE 22:13:43 50° SSE
COSMOS 2428 3.6 22:10:04 10° NNW 22:15:27 40° NE 22:17:35 29° E
Cosmos 1655 Rocket 4.0 22:12:44 35° S 22:15:37 86° E 22:22:04 10° N
Spot 4 4.4 22:21:45 40° E 22:22:36 44° ENE 22:27:11 10° N
S3M 4.1 22:16:24 10° NNW 22:22:47 73° W 22:25:25 37° S
USA 229 DEB 4.4 22:16:45 10° NNW 22:23:53 55° NE 22:28:16 26° ESE
USA 229 4.4 22:16:51 10° NNW 22:23:59 54° NE 22:28:23 26° ESE
ATLAS 5 CENTAUR R/B 3.3 22:22:13 10° NNW 22:27:17 39° NE 22:30:39 22° E
Cosmos 1174 4.4 22:24:26 10° NNW 22:26:29 40° NNW 22:26:29 40° NNW
Terra 2.9 22:26:50 28° SW 22:28:20 35° W 22:32:43 10° NNW
COSMOS 2487 4.0 22:31:49 28° NE 22:31:49 28° NE 22:33:38 10° NNE
SPOT 5 4.5 22:30:02 18° WSW 22:31:33 21° W 22:34:55 10° NW
Cosmos 1452 Rocket 3.6 22:26:31 10° NNW 22:31:47 67° ENE 22:32:49 53° ESE
ALOS 2 3.7 22:33:57 31° ENE 22:34:19 32° ENE 22:38:14 10° N
USA 267 3.1 22:32:31 10° NE 22:39:06 79° SE 22:45:39 10° SW
SL-27 R/B 4.0 22:39:50 28° W 22:40:38 32° WNW 22:43:55 10° N
Cosmos 2056 Rocket 4.5 22:36:19 10° NW 22:41:12 36° WSW 22:42:28 32° SW
Meteor 1-27 Rocket 3.8 22:37:12 10° NNW 22:42:50 75° W 22:44:14 52° SSW
NOSS 3-1 (A) 4.2 22:37:02 10° NW 22:44:26 69° NE 22:48:48 32° ESE
Cosmos 1805 Rocket 3.4 22:49:12 86° ESE 22:49:12 86° ESE 22:53:41 10° N
Cosmos 2360 Rocket 2.9 22:45:34 10° NW 22:50:46 39° WSW 22:51:53 36° SW
IRIDIUM 104 4.4 22:46:10 10° N 22:51:23 73° W 22:52:18 58° SSW
Meteor 1-20 Rocket 4.1 22:54:51 62° SSE 22:55:41 74° E 23:01:22 10° NNE
Cosmos 1110 Rocket 4.2 22:52:32 10° NNW 22:57:49 59° ENE 22:58:40 52° ESE
Cosmos 1500 Rocket 4.5 22:59:40 37° WSW 23:00:26 41° WNW 23:04:39 10° N
Cosmos 2333 Rocket 2.2 22:56:14 10° NNW 23:01:51 66° WSW 23:02:38 59° SSW
Cosmos 1331 Rocket 4.2 22:58:03 10° NNW 23:03:15 59° ENE 23:03:58 53° E
Cosmos 1244 Rocket 4.4 23:03:47 56° SSE 23:04:58 70° E 23:11:08 10° NNE
Cosmos 972 Rocket 4.3 23:07:27 46° SW 23:08:49 62° WNW 23:13:49 10° NNE
COBE Rocket 4.1 23:09:07 53° WSW 23:09:16 54° W 23:13:52 10° NNW
Cosmos 2322 3.8 23:06:26 10° NNW 23:12:03 58° WSW 23:12:44 54° SW
USA 234 3.2 23:10:02 37° ESE 23:12:53 82° NE 23:19:28 10° NW
NOSS 0 Rocket 4.1 23:08:08 10° NNW 23:14:22 66° ENE 23:16:01 48° ESE
Cosmos 2297 Rocket 3.2 23:17:11 31° E 23:17:11 31° E 23:21:44 10° NE
Cosmos 468 4.5 23:16:08 63° SW 23:16:52 76° WNW 23:22:08 10° NNE
Lacrosse 5 3.4 23:21:59 23° E 23:21:59 23° E 23:24:20 10° ENE
Cosmos 2322 Rocket 4.4 23:19:58 10° WNW 23:22:15 13° W 23:23:35 12° WSW
Cosmos 2237 Rocket 2.8 23:17:00 10° NNW 23:22:31 49° ENE 23:24:02 39° E
Cosmos 2084 Rocket 4.4 23:19:44 10° NNW 23:23:44 41° NE 23:24:07 40° ENE
Cosmos 1500 4.1 23:26:57 46° NNE 23:26:57 46° NNE 23:29:46 10° NNE
Meteor 1-18 Rocket 4.1 23:20:14 10° N 23:26:08 82° E 23:26:57 67° SSE
Cosmos 1470 Rocket 4.4 23:29:03 42° ENE 23:29:03 42° ENE 23:32:28 10° NNE
Cosmos 2227 Rocket 3.3 23:28:53 29° E 23:28:53 29° E 23:33:19 10° NE
Sich 1 3.7 23:28:46 46° WNW 23:28:47 46° WNW 23:33:00 10° N
Meteor 1-25 Rocket 4.4 23:30:16 52° WSW 23:31:20 62° WNW 23:36:53 10° N
Cosmos 2285 Rocket 4.3 23:25:30 10° NNW 23:31:33 51° WSW 23:32:33 46° SW
Okean 1 4.0 23:28:34 10° NNW 23:31:46 52° NW 23:31:46 52° NW
Cosmos 1633 Rocket 3.2 23:33:06 70° N 23:33:06 70° N 23:37:00 10° N
Cosmos 494 Rocket 4.0 23:33:16 61° WSW 23:33:52 67° WNW 23:38:59 10° NNE
Cosmos 1666 Rocket 3.8 23:37:07 65° NW 23:37:07 65° NW 23:41:15 10° N
Cosmos 2219 Rocket 3.0 23:39:31 10° NW 23:44:36 36° WSW 23:44:40 36° WSW
SL-08 R/B 4.4 23:45:17 60° SSW 23:46:29 79° W 23:52:40 10° N
Meteor 1-19 Rocket 4.4 23:43:36 10° NNW 23:49:05 55° W 23:49:32 53° WSW
SL-16 R/B 3.7 23:44:40 10° N 23:49:41 31° NE 23:52:42 20° E
Cosmos 1269 Rocket 4.1 23:50:05 63° ESE 23:50:05 63° ESE 23:55:16 10° NNE
PSLV R/B 4.2 23:47:52 10° NNE 23:52:12 51° E 23:52:12 51° E
Resurs 1-4 Rocket 4.4 23:52:54 10° ENE 23:54:10 11° E 23:55:13 10° E
